Location: Cueva de Ratón
(10.1013°N, 67.6606°W)
Time: 07:06:36
(UTC+00:00)

Cosmos 2084 Rocket - Visible Passes

Search period start: 21 May 2024 00:00
Search period end: 31 May 2024 00:00
Orbit: 510 x 636 km, 62.8° (Epoch: 20 May)

Date Brightness Start Highest point End Pass type
(mag) Time Alt. Az. Time Alt. Az. Time Alt. Az.
21 May 6.4 09:07:40 10° SE 09:09:28 12° ESE 09:11:14 10° E visible
22 May 5.8 09:08:26 10° SSE 09:11:54 22° ESE 09:15:17 10° ENE visible
23 May 4.9 09:10:07 10° S 09:14:20 38° ESE 09:18:25 10° NE visible
24 May 3.7 09:12:14 10° SSW 09:16:45 71° ESE 09:21:06 10° NNE visible
25 May 3.6 09:15:29 15° SW 09:19:09 62° WNW 09:23:28 10° NNE visible
26 May 6.3 07:42:31 12° ESE 07:42:43 12° ESE 07:44:22 10° E visible
26 May 4.3 09:18:45 17° WSW 09:21:33 34° WNW 09:25:31 10° N visible
27 May 5.7 07:45:41 21° ESE 07:45:41 21° ESE 07:48:26 10° ENE visible
27 May 5.1 09:21:53 14° W 09:23:58 19° WNW 09:27:07 10° NNW visible
28 May 5.3 07:48:44 30° ENE 07:48:44 30° ENE 07:51:30 10° NE visible
28 May 5.6 09:25:13 10° WNW 09:26:24 11° WNW 09:27:33 10° NW visible
29 May 5.1 07:51:41 33° NE 07:51:41 33° NE 07:54:09 10° NNE visible
30 May 5.4 07:54:32 25° N 07:54:32 25° N 07:56:27 10° NNE visible
